Terug naar catalogus

EXPLORER 38 DEB

ActiefMEO
NORAD 28608·DEBRIS·🇺🇸 United States

Gelanceerd Jul 4, 1968 vanaf Vandenberg Space Force Base

Loading…

Volgende Passages (komende 24 uur)

TLE

VersSource: Space-Track

Epoch: Sep 8, 2026, 22:17 UTC

1 28608U 68055M   26251.92881678 -.00000010  00000-0  00000+0 0  9994
2 28608 120.8286 205.1765 0020181 303.4041 247.8323  6.42255397302058

Volg EXPLORER 38 DEB in realtime met AllMySat

Download on the App Store